NOAA 16 DEB

Satellite information

Favourite Embed

Satellite Type and Status

DEBRISIN ORBIT

Key statistics

Satellite NOAA 16 DEB at a glance.

Uptime

8996

Days in orbit

Revolutions

≈ 14.2

Per day

Orbit

SSO

Sun Synchronous Orbit

Inclination

98.7

Latest

Satellite identification and parameters

Extended collection of information and parameters for NOAA 16 DEB.

Object identification

Identified? True

Debris? True

Object name: NOAA 16 DEB

International designator: 2000-055TC

Object number (NORAD): 42408

Object ID (CCSDS): 42408

Country: UNITED STATES OF AMERICA (US)

Current information (Y/N): Y

RCS size: SMALL

Orbital parameters

Period: 101.332 minutes

Inclination: 98.7385 deg

SMA: 7199.847 km

Apoapsis: 834.058 km

Periapsis: 809.367 km

RAAN: 187.7848 deg

Eccentricy: 0.0017147

Argument of periapsis: 243.917 deg

Mean anomaly: 116.0242 deg

Mean motion: 14.21077741 rev/day

Mean motion (dot): 0.00003773 rev/day2

B* drag term: 0.0017552 1/REarth

Two-line elements (TLE)

Creation date: May 9, 2025, 2:46 a.m.

Reference frame: TEME

Reference center: EARTH

Epoch: May 8, 2025, 9:43 a.m. UTC

TLE line 0: 0 NOAA 16 DEB

TLE line 1: 1 42408U 00055TC 25128.40519293 .00003773 00000-0 17552-2 0 9991

TLE line 2: 2 42408 98.7385 187.7848 0017147 243.9170 116.0242 14.21077741470213

Live tracking on map

Real-time ground track for satellite NOAA 16 DEB.

In-orbit conjunctions

A list of the most updated potential collisions computed for object NOAA 16 DEB.

Target Orbit TCA Probability of collision Miss distance Type
METEOR 1-19 LEO 2025-01-10 18:32:13 0.0002791583 510.0 (m) PAYLOAD
SL-3 DEB LEO 2024-11-12 15:29:57 0.0004641375 213.0 (m) DEBRIS
CZ-6A DEB LEO 2024-11-09 11:14:32 0.0004662022 125.0 (m) DEBRIS

Associated space launch

The NOAA K, L and M POES satellites begin the fifth generation of improved environmental monitoring in support of NOAA missions. The instrument payload has significant improvements and additions/deletions. The instrument changes have effected the spacecraft subsystems and data formats.

NOAA 16 DEB was lifted into orbit during the mission ‘Titan II SLV | NOAA 16’, on board a Titan II SLV space rocket.

The launch took place on Sept. 21, 2000, 10:22 a.m. from Space Launch Complex 4W.

For more information about the launch, click the button.

Launch to space Titan II SLV | NOAA 16
Titan II SLV | NOAA 16

Agency: N/A

Status: Launch Successful

Launch date: Sept. 21, 2000, 10:22 a.m. UTC

Rocket: Titan II SLV

Launch pad: Space Launch Complex 4W

Location: Vandenberg SFB, CA, USA

...

Latest news about this satellite

There are no fresh news available about this satellite. Check back as we update our databases every day.


Newsletter sign-up

Weekly statistics, charts and insights to help you stay on top of the space industry.